Location: Dal�� Lhota
(48.7500°N, 14.0167°E)
Time: 23:21:40
(UTC+00:00)

Cosmos 2266 Rocket - Pass Details

Date: 24 September 2020
Orbit: 934 x 1008 km, 82.9° (Epoch: 25 October)

Event Time Altitude Azimuth Distance (km) Brightness Sun altitude
Rises 19:52:19 0° 351° (N) 3,608 7.6 -28.1°
Reaches altitude 10° 19:54:49 10° 352° (N) 2,657 6.8 -28.4°
Enters shadow 20:00:32 77° 36° (NE) 963 3.8 -29.2°
